Location: Brienzwiler
(46.7508°N, 8.1014°E)
Time: 17:11:32
(UTC+00:00)

PSLV R/B - Pass Details

Date: 05 July 2020
Orbit: 598 x 701 km, 97.9° (Epoch: 11 August)

Event Time Altitude Azimuth Distance (km) Brightness Sun altitude
Rises 23:29:34 0° 19° (NNE) 2,856 8.2 -20.6°
Reaches altitude 10° 23:31:49 10° 26° (NNE) 1,952 7.0 -20.6°
Maximum altitude 23:35:52 45° 99° (E) 836 4.1 -20.6°
Enters shadow 23:36:35 41° 128° (SE) 891 4.0 -20.6°
